Location: Austin
(30.3000°N, 97.7500°W)
Time: 10:38:31
(UTC-05:00)

Resurs 01 Rocket - Pass Details

Date: 26 May 2023
Orbit: 633 x 641 km, 97.8° (Epoch: 31 May)

Event Time Altitude Azimuth Distance (km) Brightness Sun altitude
Exits shadow 22:32:19 24° 216° (SW) 1,311 3.1 -23.4°
Maximum altitude 22:34:11 35° 262° (W) 1,035 2.9 -23.6°
Drops below altitude 10° 22:38:14 10° 328° (NNW) 2,031 5.2 -24.3°
Sets 22:40:37 0° 337° (NNW) 2,945 6.2 -24.6°
